Location: Unspecified
(0.0000°N, 0.0000°E)
Time: 11:02:43
(UTC+00:00)

FALCONSAT 3 - Visible Passes

Search period start: 15 December 2019 00:00
Search period end: 25 December 2019 00:00
Orbit: 453 x 457 km, 35.4° (Epoch: 14 December)

Date Brightness Start Highest point End Pass type
(mag) Time Alt. Az. Time Alt. Az. Time Alt. Az.
15 Dec ? 19:08:15 10° SSW 19:11:37 36° SE 19:12:15 33° ESE visible
16 Dec ? 18:31:04 10° SSW 18:34:15 29° SE 18:37:05 12° E visible
16 Dec ? 20:10:12 10° W 20:10:45 13° W 20:10:45 13° W visible
17 Dec ? 19:32:36 10° W 19:35:36 25° NW 19:35:36 25° NW visible
18 Dec ? 18:55:04 10° W 18:58:17 31° NW 19:00:29 17° NNE visible
19 Dec ? 04:58:14 10° N 05:00:49 18° NE 05:03:25 10° E visible
19 Dec ? 18:17:33 10° WSW 18:20:55 38° NW 18:24:17 10° NNE visible
20 Dec ? 04:22:55 15° NNE 04:23:26 15° NE 04:25:39 10° ENE visible
21 Dec ? 05:21:26 11° WNW 05:24:51 54° SW 05:28:24 10° SE visible
22 Dec ? 04:46:16 38° WNW 04:47:28 68° SW 04:51:05 10° SE visible
23 Dec ? 04:11:05 46° SE 04:11:05 46° SE 04:13:44 10° SE visible
24 Dec ? 03:35:51 13° ESE 03:35:51 13° ESE 03:36:20 10° ESE visible
